SCP
0 0 0 0 0 0 0 0 0 0 0 0 0 0 0 0 0 0 0 0 0 0 0 0 0 0 0 0 0 0 0 0 0 0 0 0 0 0 0 0 0 0 0
0 0 0 0 0 0 0 0 0 0 0 0 0 0 0 0 0 0 0 0 0 0 0 0 0 0 0 0 0 0 0 0 0 0 0 0 0 0 0 0 0 0 0
0 0 0 0 0 0 0 0 0 0 0 0 0 0 0 0 0 0 0 0 0 0 0 0 0 0 0 0 0 0 0 0 0 0 0 0 0 0 0 0 0 0 0
0 0 0 0 0 0 0 0 0 0 0 0 0 0 0 0 0 0 0 0 0 0 0 0 0 0 0 0 0 0 0 0 0 0 0 0 0 0 0 0 0 0 0
0 0 0 0 0 0 0 0 0 0 0 0 0 0 0 0 0 0 0 0 0 0 0 0 0 0 0 0 0 0 0 0 0 0 0 0 0 0 0 0 0 0 0
0 0 0 0 0 0 0 0 0 0 0 0 0 0 0 0 0 0 0 0 0 0 0 0 0 0 0 0 0 0 0 0 0 0 0 0 0 0 0 0 0 0 0
0 0 0 0 0 0 0 0 0 0 0 0 0 0 0 0 0 0 0 0 0 0 0 0 0 0 0 0 0 0 0 0 0 0 0 0 0 0 0 0 0 0 0
0 0 0 0 1 0 0 0 0 0 0 0 0 0 0 0 0 0 0 0 0 0 0 0 0 0 0 0 0 0 0 0 0 0 0 0 0 0 0 0 0 0 0
0 0 0 0 0 0 0 0 0 0 0 0 0 0 0 0 0 0 0 0 0 0 0 0 0 0 0 0 0 0 0 0 0 0 0 0 0 0 0 0 0 0 0
0 0 0 0 0 0 0 0 0 0 0 0 0 0 0 0 0 0 0 0 0 0 0 0 0 0 0 0 0 0 0 0 0 0 0 0 0 0 0 0 0 0 0
0 0 0 0 0 0 0 0 0 0 0 0 0 0 0 0 0 0 0 0 0 0 0 0 0 0 0 0 0 0 0 0 0 0 0 0 0 0 0 0 0 0 0
0 0 0 0 0 0 0 0 0 0 0 0 0 0 0 0 0 0 0 0 0 0 0 0 0 0 0 0 0 0 0 0 0 0 0 0 0 0 0 0 0 0 0
1 0 0 0 0 0 0 0 0 0 0 0 0 0 0 0 0 0 0 0 0 0 0 0 0 0 0 0 0 0 0 0 0 0 0 0 0 0 0 0 0 0 0
1 1 0 0 0 0 0 0 0 0 0 0 0 0 0 0 0 0 0 0 0 0 0 0 0 0 0 0 0 0 0 0 0 0 0 0 0 0 0 0 0 0 0
1 1 1 1 1 0 0 0 0 0 0 0 0 0 0 0 0 0 0 0 0 0 0 0 0 0 0 0 0 0 0 0 0 0 0 0 0 0 0 0 0 0 0
1 1 1 1 1 1 1 0 0 0 0 0 0 0 0 0 0 0 0 0 0 0 0 0 0 0 0 0 0 0 0 0 0 0 0 0 0 0 0 0 0 0 0
1 1 1 1 1 1 1 0 0 0 0 0 0 0 0 0 0 0 0 0 0 0 0 0 0 0 0 0 0 0 0 0 0 0 0 0 0 0 0 0 0 0 0
1 1 1 1 1 1 1 0 0 0 0 0 0 0 0 0 0 0 0 0 0 0 0 0 0 0 0 0 0 0 0 0 0 0 0 0 0 0 0 0 0 0 0
1 1 1 1 1 1 1 1 0 0 0 0 0 0 0 0 0 0 0 0 0 0 0 0 0 0 0 0 0 0 0 0 0 0 0 0 0 0 0 0 0 0 0
1 1 1 1 1 1 1 1 1 0 0 0 0 0 0 0 0 0 0 0 0 0 0 0 0 0 0 0 0 0 0 0 0 0 0 0 0 0 0 0 0 0 0
1 1 1 1 1 1 1 1 1 1 1 0 0 0 0 0 0 0 0 0 0 0 0 0 0 0 0 0 0 0 0 0 0 0 0 0 0 0 0 0 0 0 0
1 1 1 1 1 1 1 1 1 1 1 1 0 0 0 0 0 0 0 0 0 0 0 0 0 0 0 0 0 0 0 0 0 0 0 0 0 0 0 0 0 0 0
1 1 1 1 1 1 1 1 1 1 1 1 0 0 0 0 0 0 0 0 0 0 0 0 0 0 0 0 0 0 0 0 0 0 0 0 0 0 0 0 0 0 0
1 1 1 1 1 1 1 1 1 1 1 1 1 0 0 0 0 0 0 0 0 0 0 0 0 0 0 0 0 0 0 0 0 0 0 0 0 0 0 0 0 0 0
1 1 1 1 1 1 1 1 1 1 1 1 1 1 0 0 0 0 0 0 0 0 0 0 0 0 0 0 0 0 0 0 0 0 0 0 0 0 0 0 0 0 0
1 1 1 1 1 1 1 1 1 1 1 1 1 1 1 0 0 0 0 0 0 0 0 0 0 0 0 0 0 0 0 0 0 0 0 0 0 0 0 0 0 0 0
Wind_Speed
5 7 12 13 13 13 13 13 13 13 13 13 13 13 13 13 13 13 13 13 14 14 15 15 15 15 15 15 15 15 15 14 14 14 14 14 14 15 15 14 13 9 14
10 9 13 13 13 13 13 13 13 13 13 13 13 13 13 12 12 13 13 13 14 14 15 14 14 14 14 14 14 14 13 13 13 13 13 12 13 13 14 14 13 8 14
12 9 12 14 14 13 13 12 12 12 12 12 12 12 12 12 12 12 13 13 14 14 14 13 13 13 13 13 13 13 12 12 12 12 11 6 7 12 14 14 14 13 13
12 9 11 15 14 13 13 12 12 12 12 12 12 12 12 12 12 12 12 13 13 13 13 13 13 12 12 12 11 12 11 11 11 10 5 3 5 11 13 13 13 13 13
11 8 11 16 14 13 12 12 12 12 12 12 12 12 12 11 11 11 12 12 12 12 12 12 11 11 10 10 10 10 10 10 10 7 4 3 4 10 12 12 12 12 12
10 8 11 16 15 13 12 11 11 11 11 11 11 11 11 11 11 11 11 11 11 11 11 10 10 9 9 9 9 9 9 9 7 4 4 4 4 9 11 12 12 12 11
10 8 9 14 14 13 12 11 11 11 10 10 10 10 10 10 10 10 10 10 10 10 9 9 9 8 8 8 8 8 8 9 5 4 3 3 4 9 11 11 11 11 11
12 9 9 14 14 13 12 11 10 10 10 10 9 9 9 9 9 9 9 9 9 9 8 8 7 7 7 7 6 7 7 7 6 5 3 3 6 9 11 10 10 10 10
11 9 7 8 10 12 12 11 10 10 10 9 9 9 8 8 8 9 9 9 9 8 8 7 6 6 6 6 6 6 6 6 4 2 4 3 7 10 10 10 9 9 9
9 8 8 7 6 6 7 11 11 10 10 9 9 8 8 8 8 9 8 8 8 8 7 6 6 5 5 5 5 5 5 5 3 2 2 4 8 10 10 9 9 8 8
8 6 7 7 6 6 6 8 9 9 9 8 7 8 6 3 3 4 6 8 8 7 6 6 5 4 4 4 5 6 4 2 3 2 1 6 9 10 10 9 9 8 8
10 8 7 8 7 6 6 5 3 4 4 4 3 3 2 2 2 4 6 8 7 7 6 5 5 4 3 2 3 4 2 2 2 2 3 7 8 9 9 9 8 8 8
10 9 7 7 7 6 4 4 3 2 2 3 3 3 3 2 1 2 2 3 3 4 2 2 2 1 1 1 1 1 2 2 2 2 3 7 7 8 8 8 8 8 8
10 9 8 8 7 6 5 4 4 3 2 3 3 4 3 2 2 2 2 2 1 1 2 1 1 1 1 2 2 2 2 2 2 1 3 7 7 7 8 8 8 8 7
9 8 9 8 7 6 5 4 4 3 3 3 3 3 3 2 2 2 2 2 2 1 2 2 1 1 2 2 2 3 3 3 3 2 2 7 8 7 7 7 7 7 7
8 8 8 8 7 6 5 4 4 4 3 3 3 3 4 2 2 2 2 2 2 2 2 2 2 2 2 2 2 3 4 4 3 3 2 4 7 7 7 6 6 6 7
9 8 7 8 7 6 5 5 4 4 4 3 3 4 4 3 3 2 2 2 2 2 2 2 2 2 2 2 2 2 3 3 3 3 3 2 3 6 6 6 6 6 6
9 7 7 7 7 6 5 5 4 4 4 3 3 3 4 4 4 3 2 2 2 2 2 2 2 2 2 2 1 1 2 2 3 3 3 3 2 2 4 6 6 6 6
9 8 7 6 7 6 5 4 4 3 3 3 3 3 3 3 4 3 3 2 2 2 2 2 2 2 2 2 1 1 1 2 2 3 3 3 3 2 2 4 6 6 6
7 8 8 7 7 6 4 3 2 3 2 2 3 3 4 3 4 3 2 2 3 2 2 2 2 1 2 2 2 1 0 1 1 2 3 3 2 3 3 2 2 3 6
5 6 6 7 6 5 4 4 3 3 2 2 2 3 4 3 4 4 3 3 3 3 3 3 2 2 1 1 3 2 2 1 0 1 1 2 2 3 3 3 2 1 2
6 6 5 6 6 6 4 4 3 3 2 2 2 2 3 4 4 4 4 3 3 3 3 2 3 2 1 1 3 2 1 3 2 0 1 1 2 1 2 3 2 2 2
6 6 6 5 5 5 5 3 3 2 1 1 1 2 2 3 4 4 4 4 3 4 3 3 3 3 2 1 2 4 3 2 2 2 1 1 1 1 2 2 3 3 3
6 5 5 4 4 5 5 5 5 4 3 3 3 2 2 3 4 4 4 4 4 3 4 4 3 3 3 2 1 1 2 4 3 0 2 1 1 1 2 2 2 3 3
4 4 4 4 4 4 5 5 5 4 3 2 2 3 2 2 3 4 4 4 3 3 3 3 3 3 3 3 2 1 1 1 2 3 1 2 2 1 1 2 2 2 2
3 3 4 4 4 4 5 5 5 5 4 4 3 4 3 2 2 3 3 3 3 3 3 3 3 3 3 3 2 2 2 2 2 2 2 2 1 2 1 1 1 2 2
Wind_Direction
150 152 135 125 118 114 109 106 102 99 96 95 95 95 94 94 94 93 96 99 102 105 108 108 108 106 102 101 103 106 108 109 112 119 122 123 124 124 122 121 121 121 122
151 149 136 128 122 119 114 111 108 105 101 99 99 99 98 97 96 95 96 100 104 107 108 110 110 108 106 105 105 106 107 108 108 111 116 117 124 127 127 125 123 123 121
143 143 137 130 126 123 119 116 114 111 108 105 104 103 104 102 100 100 101 103 105 107 109 111 111 111 109 108 108 108 106 102 104 102 102 97 118 127 129 129 126 124 122
141 142 140 135 130 126 125 124 121 118 114 111 109 108 107 106 105 106 107 108 108 108 109 109 110 112 111 111 111 111 110 105 104 100 91 97 116 126 129 131 129 127 124
139 143 144 137 134 131 130 129 127 125 121 117 115 113 112 111 110 110 111 113 114 114 113 114 115 113 113 114 114 113 113 111 106 97 92 97 109 129 134 134 132 128 126
140 143 146 140 138 137 135 133 131 129 126 124 121 119 118 118 117 117 119 120 119 117 117 118 118 118 120 121 120 118 117 112 105 101 104 112 120 137 138 137 134 131 132
141 140 143 141 140 140 140 137 135 133 131 130 128 126 124 123 124 125 127 127 125 123 122 121 121 122 121 119 120 119 120 120 118 116 117 120 136 146 144 142 140 137 138
143 142 144 145 143 142 142 141 139 137 135 134 134 132 129 128 130 132 134 133 131 130 130 128 128 127 125 122 119 119 118 119 120 124 122 137 150 150 146 145 143 142 143
140 142 145 149 147 148 146 145 143 141 140 138 136 137 138 139 139 141 142 142 140 141 140 138 136 132 126 123 121 121 122 119 122 129 137 145 153 155 153 150 147 146 148
141 147 150 149 148 151 152 153 151 148 145 142 141 142 144 147 150 152 152 154 152 152 150 146 142 135 127 126 128 127 127 118 112 118 135 151 155 155 155 153 151 152 152
147 156 157 155 155 156 158 160 156 153 151 147 146 146 143 144 155 159 163 162 162 162 160 157 153 142 131 127 126 125 122 114 118 122 138 146 150 152 152 152 151 155 156
162 170 169 161 159 159 163 151 154 154 154 150 146 147 148 147 156 155 166 169 167 167 168 167 160 145 122 107 118 118 112 128 124 143 149 146 148 150 151 152 152 157 160
165 168 171 164 162 160 152 151 158 156 155 157 152 149 149 144 151 150 152 170 168 167 165 168 160 142 132 132 123 130 140 134 135 153 153 150 152 156 160 161 161 163 164
159 167 168 162 160 161 153 158 158 156 158 161 166 160 155 153 161 164 161 166 167 158 155 155 152 163 153 152 149 145 144 142 139 144 160 158 161 160 161 164 168 171 170
160 165 166 160 159 160 155 161 156 161 161 165 163 170 158 155 173 175 171 165 164 157 159 160 169 170 157 149 154 155 155 152 151 151 159 168 167 164 166 168 173 176 177
161 168 161 159 159 153 152 153 154 161 157 151 157 161 158 150 158 162 163 165 170 172 168 168 169 157 149 144 148 150 150 146 148 155 162 167 165 166 170 173 178 182 184
160 161 159 159 153 146 144 148 147 157 152 153 163 161 163 155 155 154 157 165 174 164 152 149 133 123 133 134 133 144 147 156 161 164 165 164 171 175 176 177 177 182 185
153 153 158 156 149 146 143 144 146 152 153 159 159 160 165 159 151 145 156 177 162 142 143 141 129 118 123 126 141 157 145 156 167 172 169 168 171 178 181 182 183 183 185
156 155 155 154 153 151 147 143 143 145 152 160 157 158 161 153 155 154 161 171 153 136 139 150 132 140 136 133 152 154 153 162 171 175 176 182 180 175 178 186 192 192 189
151 156 158 155 156 150 142 129 125 129 146 153 158 167 167 164 161 152 149 157 149 136 136 131 132 127 136 143 133 111 138 185 177 173 184 187 186 190 192 193 190 203 198
134 146 155 153 158 154 155 155 157 167 168 169 177 177 176 171 162 154 153 153 151 155 160 154 132 121 104 100 86 48 9 4 182 197 174 172 189 198 200 201 194 194 209
143 146 152 159 162 163 168 170 166 161 172 175 176 182 182 171 167 163 160 162 159 150 145 147 127 127 133 126 120 104 32 351 339 314 144 170 191 194 204 203 193 185 189
154 160 158 164 164 164 157 141 121 103 94 110 173 195 199 169 165 165 166 162 161 155 164 169 157 149 161 176 139 137 143 206 297 327 303 193 190 184 202 193 192 196 190
170 167 154 154 156 162 158 154 157 161 176 197 193 192 185 172 161 163 162 162 167 167 167 177 172 161 155 172 190 160 163 157 149 289 319 313 240 193 198 199 198 202 192
160 153 153 154 157 161 163 165 166 174 190 186 170 164 169 170 171 165 159 159 165 170 174 174 170 166 166 167 169 160 121 107 127 143 216 305 322 276 225 206 190 192 197
138 147 152 159 167 168 168 168 168 174 175 164 163 165 169 167 171 171 160 161 170 174 179 180 178 176 178 170 165 163 158 155 170 152 171 209 246 275 262 225 190 192 196